TimeCDT,TemperatureF,Dew PointF,Humidity,Sea Level PressureIn,VisibilityMPH,Wind Direction,Wind SpeedMPH,Gust SpeedMPH,PrecipitationIn,Events,Conditions,WindDirDegrees,DateUTC
12:53 AM,71.1,57.0,61,29.81,10.0,South,10.4,-,N/A,,Clear,170,2012-09-18 05:53:00
1:53 AM,70.0,55.0,59,29.80,10.0,South,11.5,-,N/A,,Clear,170,2012-09-18 06:53:00
2:53 AM,66.9,53.1,61,29.86,10.0,NNW,11.5,-,N/A,,Clear,340,2012-09-18 07:53:00
3:53 AM,66.9,52.0,59,29.84,10.0,South,10.4,-,N/A,,Clear,180,2012-09-18 08:53:00
4:53 AM,64.0,54.0,70,29.87,10.0,NNW,6.9,-,N/A,,Clear,340,2012-09-18 09:53:00
5:53 AM,60.1,55.0,83,29.91,10.0,NNW,6.9,-,N/A,,Clear,330,2012-09-18 10:53:00
6:53 AM,57.9,53.1,84,29.96,10.0,WNW,6.9,-,N/A,,Clear,300,2012-09-18 11:53:00
7:53 AM,57.9,53.1,84,30.00,10.0,WNW,3.5,-,N/A,,Clear,290,2012-09-18 12:53:00
8:53 AM,61.0,53.1,75,30.04,10.0,Calm,Calm,-,N/A,,Clear,0,2012-09-18 13:53:00
9:53 AM,64.9,54.0,68,30.07,10.0,NNW,5.8,-,N/A,,Clear,330,2012-09-18 14:53:00
10:53 AM,69.1,55.0,61,30.08,10.0,ENE,3.5,-,N/A,,Clear,60,2012-09-18 15:53:00
11:53 AM,72.0,55.9,57,30.09,10.0,NNE,6.9,-,N/A,,Scattered Clouds,20,2012-09-18 16:53:00
12:53 PM,72.0,59.0,64,30.09,10.0,NE,9.2,-,N/A,,Mostly Cloudy,40,2012-09-18 17:53:00
1:10 PM,75.2,59.0,57,30.21,10.0,Variable,6.9,16.1,N/A,,Mostly Cloudy,0,2012-09-18 18:10:00
1:20 PM,73.4,57.2,57,30.21,10.0,ENE,6.9,-,N/A,,Mostly Cloudy,60,2012-09-18 18:20:00
1:53 PM,75.9,59.0,56,30.08,10.0,NNE,5.8,-,N/A,,Mostly Cloudy,20,2012-09-18 18:53:00
2:53 PM,75.9,57.0,52,30.06,10.0,Calm,Calm,-,N/A,,Mostly Cloudy,0,2012-09-18 19:53:00
3:53 PM,78.1,55.9,46,30.04,10.0,East,3.5,-,N/A,,Scattered Clouds,80,2012-09-18 20:53:00
4:53 PM,80.1,55.9,43,30.01,10.0,Calm,Calm,-,N/A,,Partly Cloudy,0,2012-09-18 21:53:00
5:53 PM,80.1,54.0,40,30.01,10.0,Calm,Calm,-,N/A,,Partly Cloudy,0,2012-09-18 22:53:00
6:53 PM,80.1,52.0,38,30.01,10.0,NNE,5.8,-,N/A,,Clear,20,2012-09-18 23:53:00
7:53 PM,75.9,53.1,45,30.03,10.0,ENE,4.6,-,N/A,,Clear,60,2012-09-19 00:53:00
8:53 PM,73.0,52.0,48,30.04,10.0,East,5.8,-,N/A,,Clear,90,2012-09-19 01:53:00
9:53 PM,72.0,52.0,49,30.04,10.0,ESE,3.5,-,N/A,,Clear,120,2012-09-19 02:53:00
10:53 PM,70.0,52.0,53,30.05,10.0,SE,4.6,-,N/A,,Clear,130,2012-09-19 03:53:00
11:53 PM,66.9,52.0,59,30.06,10.0,SSE,5.8,-,N/A,,Clear,160,2012-09-19 04:53:00